Wind_Speed
28 29 29 30 30 30 30 30 30 29 28 28 28 29 29 28 29 29 29 29 29 30 30 29 29 29 29 30 30 30 30 30 31 30 30 31 31 31
27 27 27 27 28 29 30 29 29 28 28 27 26 27 26 27 27 27 27 28 27 28 28 28 27 27 28 28 29 29 29 28 28 28 29 30 29 30
25 25 25 26 26 27 27 27 27 26 26 26 25 25 25 25 25 24 24 25 25 25 25 25 25 25 25 25 25 26 26 25 25 25 26 28 28 29
23 23 23 24 24 24 24 24 24 24 24 23 22 22 22 22 22 22 22 22 21 21 21 20 21 20 21 21 21 22 23 24 24 25 26 27 28 28
20 21 21 20 20 20 21 21 21 21 21 20 20 19 19 20 20 20 19 19 18 18 18 18 18 18 19 20 20 21 22 23 24 25 25 25 26 27
17 16 17 17 16 17 18 18 18 18 18 18 17 17 17 17 17 17 17 17 17 17 17 17 17 18 19 19 19 19 20 20 21 22 23 23 24 25
15 14 14 14 14 14 15 15 15 15 14 15 14 13 13 13 13 13 14 14 15 15 15 16 16 16 17 17 17 18 19 19 20 20 21 22 23 23
12 11 11 11 11 11 11 12 12 12 12 11 11 10 10 10 10 10 11 11 11 12 13 13 14 15 16 16 17 17 18 18 18 20 21 21 23 23
9 9 9 8 8 8 7 8 8 9 8 8 8 8 8 7 8 9 10 10 10 11 12 12 12 13 14 15 15 16 16 17 17 18 18 19 21 22
6 6 6 6 5 5 4 4 5 5 5 5 6 6 6 7 8 9 9 10 10 10 10 10 10 11 12 13 13 14 14 15 16 17 18 19 21 22
4 4 3 3 2 2 2 2 3 4 4 4 4 3 3 5 6 7 8 8 8 9 8 9 9 10 11 12 12 12 13 15 16 18 19 20 21 22
4 3 2 0 1 2 3 3 3 3 2 2 1 1 2 3 4 5 6 7 7 7 8 8 9 9 10 11 11 12 14 15 16 17 19 20 21 23
3 2 2 3 3 4 5 4 3 3 2 2 1 0 1 2 3 4 4 5 6 6 7 7 7 8 9 10 11 13 15 16 17 18 20 21 23 24
4 4 5 6 6 6 6 5 4 3 3 2 2 1 1 2 3 3 3 4 5 6 6 7 7 9 10 11 12 14 15 16 18 20 22 23 25 26
7 7 7 7 7 8 8 7 6 6 5 4 3 3 4 4 4 4 4 4 5 7 8 8 10 11 12 12 13 14 16 17 19 21 23 25 27 28
9 10 9 10 9 9 9 9 8 7 7 7 6 6 6 6 6 6 6 6 7 7 8 9 11 12 13 14 15 16 18 19 21 23 25 26 27 29
10 10 10 10 10 10 8 8 8 8 8 8 8 9 9 8 8 7 7 8 8 8 9 11 12 13 14 16 17 18 20 22 24 26 27 28 29 30
10 10 10 10 10 9 9 8 8 7 8 8 9 9 9 8 8 8 8 9 9 10 11 12 14 15 16 18 20 21 23 24 26 28 29 30 30 32
9 9 9 9 9 8 8 8 8 8 8 8 9 9 9 8 8 8 9 10 11 11 12 14 16 17 19 20 21 24 25 27 28 29 30 32 33 33
9 9 9 8 8 7 7 7 8 8 8 7 7 8 8 9 9 10 11 12 13 14 15 17 18 20 21 22 23 25 27 29 30 32 33 34 35 35
9 9 8 8 8 8 7 7 7 7 6 6 7 7 8 10 10 11 12 13 14 16 17 18 20 21 23 24 26 27 29 31 33 34 35 36 36 37
8 8 8 8 8 8 7 6 6 6 6 6 7 9 10 11 12 13 14 15 17 18 19 20 22 23 24 26 28 30 31 33 34 36 37 38 39 39
6 6 6 6 6 6 6 6 6 6 7 7 9 10 11 12 14 15 16 18 19 20 21 22 23 25 27 29 31 33 35 36 37 38 38 38 39 39
Wind_Direction
273 272 272 270 268 268 268 268 270 272 274 275 276 277 276 276 276 276 274 273 274 275 275 276 275 273 274 275 278 278 275 274 274 274 276 276 276 276
272 273 273 271 269 268 268 268 269 272 273 274 275 278 279 278 276 277 275 273 273 273 274 275 276 276 277 278 279 279 278 279 278 278 279 278 278 277
275 274 274 273 271 270 268 266 267 269 271 271 273 276 278 278 277 277 278 277 275 276 277 277 277 277 278 279 280 280 280 281 280 282 284 282 278 276
276 276 275 274 272 269 267 266 265 266 268 269 272 275 277 278 278 278 279 282 278 276 277 277 278 279 280 280 282 284 283 284 285 285 287 285 281 279
275 275 274 274 272 270 268 265 263 264 267 269 271 274 275 276 276 278 278 278 278 277 279 279 280 283 284 284 285 285 286 287 288 290 290 289 288 287
279 276 274 272 273 270 266 262 260 262 264 267 269 269 271 274 275 279 277 278 279 278 281 280 281 285 286 285 286 286 286 288 291 292 293 292 291 291
284 281 280 278 275 271 265 259 258 258 261 263 264 267 271 274 276 280 281 281 280 279 281 284 284 285 286 287 288 289 290 292 292 293 293 294 295 295
288 284 283 282 278 274 269 260 258 255 255 257 260 267 273 274 277 279 281 283 283 282 284 285 285 286 287 288 289 291 293 296 296 296 297 297 298 298
290 284 283 280 275 276 271 262 253 246 244 244 249 257 261 268 272 277 282 283 282 283 283 285 288 289 289 292 297 299 300 301 302 304 304 305 305 305
305 300 290 284 275 272 253 242 234 224 226 238 243 252 261 264 271 278 281 283 281 284 286 287 291 297 301 303 306 309 309 309 309 309 309 309 309 309
331 327 313 289 263 250 229 214 200 202 218 227 232 245 267 274 280 284 286 285 284 286 290 295 298 302 305 309 310 313 315 316 316 314 313 313 315 315
342 345 360 53 189 188 170 165 164 162 177 199 212 252 289 302 302 298 299 300 300 302 306 309 310 310 311 314 314 317 320 322 322 322 321 321 319 316
355 5 52 100 125 140 145 145 152 152 151 150 146 147 329 335 332 324 322 322 319 322 329 327 327 325 324 323 324 326 327 326 326 325 324 323 321 319
65 80 101 110 110 112 122 126 125 130 136 139 126 84 27 7 2 357 356 357 351 346 350 345 342 340 337 333 330 330 329 327 326 326 325 324 322 321
79 86 101 108 109 108 105 103 99 97 98 89 74 58 42 38 37 30 21 15 6 356 354 354 351 347 342 338 334 332 330 328 327 327 325 323 321 320
81 87 91 96 101 107 102 94 88 83 75 70 67 59 54 55 52 46 38 26 13 4 360 355 352 347 341 337 334 332 331 329 328 326 326 325 323 321
85 87 89 93 94 96 93 90 86 82 75 71 67 65 63 60 57 49 38 26 17 9 0 355 350 345 342 340 337 334 331 329 327 326 325 324 323 321
90 93 95 94 92 88 84 85 83 76 70 69 66 63 58 53 48 41 33 23 15 6 359 354 349 345 342 339 335 332 329 328 327 327 326 325 325 322
92 93 93 91 88 83 79 77 74 70 69 70 63 55 47 39 32 26 17 10 4 358 353 348 345 343 341 338 337 335 333 331 329 328 327 325 325 323
89 87 85 83 82 81 79 74 69 66 64 60 51 40 32 25 17 10 3 357 353 351 347 344 343 342 340 340 339 336 334 332 331 329 328 326 326 325
81 77 79 79 77 74 72 68 65 59 51 43 32 21 13 8 3 357 353 349 347 345 343 341 340 339 339 338 338 336 335 333 332 331 330 329 327 326
78 75 71 70 72 70 64 57 50 39 28 17 8 1 356 353 351 348 346 344 343 341 340 340 339 338 337 337 336 336 335 334 333 333 331 330 329 328
69 67 67 66 60 52 43 35 26 17 8 360 354 351 349 346 344 342 340 339 338 338 338 338 338 336 336 335 335 335 335 335 334 333 332 331 329 329
Height
5773 5774 5774 5775 5776 5777 5778 5780 5781 5782 5784 5785 5785 5786 5787 5787 5788 5788 5788 5789 5789 5790 5790 5790 5791 5791 5791 5791 5791 5791 5791 5791 5791 5791 5790 5790 5790 5789
5765 5765 5766 5766 5767 5769 5770 5771 5773 5774 5776 5777 5778 5779 5780 5780 5781 5781 5781 5782 5782 5782 5783 5783 5783 5784 5784 5784 5784 5784 5784 5784 5783 5783 5783 5782 5781 5780
5758 5758 5758 5759 5759 5760 5762 5763 5765 5767 5768 5770 5771 5772 5773 5773 5774 5774 5774 5774 5775 5775 5776 5776 5776 5777 5777 5777 5777 5777 5777 5776 5776 5775 5775 5774 5773 5772
5750 5750 5751 5751 5752 5753 5754 5756 5758 5760 5762 5763 5764 5765 5766 5767 5767 5768 5768 5768 5769 5769 5770 5770 5770 5771 5771 5771 5771 5771 5770 5770 5769 5768 5767 5767 5765 5764
5744 5744 5744 5745 5745 5746 5748 5749 5751 5753 5755 5757 5759 5760 5760 5761 5762 5762 5762 5763 5763 5764 5764 5765 5765 5765 5766 5765 5765 5765 5764 5763 5762 5761 5760 5759 5758 5756
5739 5739 5739 5740 5740 5741 5742 5744 5746 5748 5750 5752 5753 5754 5755 5756 5757 5757 5758 5758 5758 5759 5759 5760 5760 5760 5760 5760 5760 5759 5758 5757 5756 5755 5754 5753 5751 5750
5734 5734 5735 5735 5736 5736 5738 5739 5742 5743 5746 5747 5749 5750 5751 5752 5753 5753 5754 5754 5754 5755 5755 5755 5756 5756 5755 5755 5755 5754 5753 5752 5751 5750 5748 5746 5745 5743
5731 5731 5732 5732 5732 5733 5734 5736 5738 5740 5742 5743 5745 5746 5747 5748 5749 5750 5750 5751 5751 5751 5752 5752 5751 5751 5751 5750 5750 5749 5748 5747 5745 5744 5742 5741 5739 5737
5729 5729 5730 5730 5730 5731 5732 5733 5735 5737 5739 5741 5742 5743 5744 5746 5747 5747 5747 5748 5748 5748 5748 5748 5748 5747 5747 5746 5745 5744 5743 5741 5740 5738 5737 5735 5733 5730
5728 5728 5728 5728 5729 5729 5730 5732 5733 5735 5737 5738 5740 5741 5742 5743 5744 5745 5745 5745 5745 5744 5744 5744 5744 5744 5743 5742 5741 5740 5738 5737 5735 5734 5732 5730 5727 5725
5728 5728 5728 5728 5728 5729 5730 5731 5733 5734 5736 5737 5738 5739 5741 5741 5741 5742 5742 5742 5742 5742 5742 5741 5741 5740 5739 5738 5737 5736 5735 5733 5731 5729 5727 5725 5722 5719
5728 5728 5728 5728 5729 5729 5731 5732 5733 5735 5736 5737 5738 5739 5739 5740 5740 5740 5740 5740 5740 5739 5739 5739 5738 5737 5737 5736 5734 5733 5731 5729 5727 5725 5722 5720 5717 5713
5729 5729 5729 5729 5730 5731 5732 5733 5734 5735 5736 5737 5738 5739 5739 5739 5739 5739 5739 5739 5738 5738 5737 5737 5736 5735 5734 5734 5732 5730 5728 5726 5723 5720 5717 5714 5711 5707
5730 5730 5730 5731 5731 5732 5733 5734 5735 5736 5737 5738 5738 5739 5739 5739 5739 5738 5738 5738 5737 5737 5736 5735 5735 5733 5732 5731 5729 5727 5725 5722 5719 5716 5713 5709 5705 5701
5732 5732 5733 5733 5734 5735 5736 5736 5737 5737 5738 5739 5739 5739 5739 5739 5739 5738 5738 5737 5737 5736 5735 5734 5733 5732 5730 5728 5726 5724 5721 5719 5715 5712 5708 5704 5699 5695
5735 5735 5736 5736 5737 5737 5738 5738 5739 5740 5740 5740 5740 5740 5740 5739 5739 5739 5738 5738 5737 5736 5735 5733 5732 5730 5728 5726 5723 5720 5718 5714 5711 5707 5703 5698 5693 5688
5738 5739 5739 5740 5740 5740 5741 5741 5742 5742 5742 5742 5741 5741 5741 5740 5740 5739 5739 5738 5737 5736 5734 5732 5730 5728 5726 5723 5720 5717 5714 5710 5706 5702 5697 5693 5688 5682
5742 5742 5743 5743 5743 5743 5743 5744 5744 5744 5744 5744 5743 5743 5743 5742 5741 5740 5739 5738 5736 5735 5733 5731 5729 5727 5724 5721 5717 5713 5710 5706 5701 5696 5691 5686 5681 5675
5745 5745 5745 5746 5746 5746 5746 5746 5746 5746 5746 5746 5746 5745 5744 5743 5742 5741 5739 5738 5736 5734 5732 5729 5727 5724 5721 5717 5714 5709 5704 5700 5695 5690 5685 5679 5674 5668
5748 5748 5748 5748 5748 5748 5748 5748 5748 5748 5748 5748 5747 5746 5745 5744 5742 5741 5739 5737 5735 5732 5730 5727 5724 5720 5717 5713 5709 5705 5700 5695 5689 5684 5678 5672 5666 5660
5751 5751 5751 5751 5751 5751 5751 5750 5750 5750 5749 5749 5748 5747 5745 5744 5742 5740 5738 5736 5733 5730 5728 5724 5721 5717 5713 5709 5705 5701 5695 5689 5683 5676 5670 5664 5658 5652
5754 5754 5754 5753 5753 5753 5753 5752 5752 5751 5750 5749 5748 5747 5745 5743 5741 5739 5736 5734 5731 5728 5725 5721 5717 5713 5709 5705 5700 5695 5689 5683 5677 5670 5662 5655 5648 5641
5756 5756 5756 5756 5755 5755 5754 5753 5752 5751 5750 5749 5748 5746 5744 5742 5739 5737 5734 5731 5728 5724 5721 5717 5713 5709 5704 5699 5694 5688 5683 5676 5670 5663 5656 5648 5641 5634